This demonstration page uses our WeatherBlox Daily Observations layout. Learn more.

39.29038, -76.61219

Hourly Observations for February 22, 2020

Temp ( °F °C ) Dew Point ( °F °C ) Humidity (%) Winds ( mph kmh ) Pressure ( in mb ) Visibility ( mi km ) Precip ( " mm )
12:54 am 00:54 undefined 32 0 8 -13.3 36 36 undefined N/A 30.4 1030 N/A 0 0
1:54 am 01:54 undefined 31 -0.6 8 -13.3 38 38 undefined N/A 30.39 1029 N/A 0 0
2:54 am 02:54 undefined 30 -1.1 8 -13.3 39 39 undefined N/A 30.37 1028 N/A 0 0
3:54 am 03:54 undefined 30 -1.1 9 -12.8 41 41 undefined N/A 30.36 1028 N/A 0 0
4:54 am 04:54 undefined 29 -1.7 10 -12.2 45 45 undefined N/A 30.36 1028 N/A 0 0
5:54 am 05:54 undefined 28 -2.2 9 -12.8 44 44 undefined N/A 30.36 1028 N/A 0 0
6:54 am 06:54 undefined 29 -1.7 9 -12.8 43 43 undefined N/A 30.38 1029 N/A 0 0
7:54 am 07:54 undefined 31 -0.6 11 -11.7 43 43 undefined N/A 30.39 1029 N/A 0 0
8:54 am 08:54 undefined 36 2.2 9 -12.8 32 32 undefined N/A 30.4 1030 N/A 0 0
9:54 am 09:54 undefined 43 6.1 9 -12.8 25 25 undefined N/A 30.39 1029 N/A 0 0
10:54 am 10:54 undefined 47 8.3 5 -15 18 18 undefined N/A 30.37 1029 N/A 0 0
11:54 am 11:54 undefined 49 9.4 4 -15.6 16 16 undefined N/A 30.35 1028 N/A 0 0
12:54 pm 12:54 undefined 52 11.1 7 -13.9 16 16 undefined N/A 30.31 1027 N/A 0 0
1:54 pm 13:54 undefined 52 11.1 5 -15 15 15 undefined N/A 30.29 1026 N/A 0 0
2:54 pm 14:54 undefined 52 11.1 4 -15.6 14 14 undefined N/A 30.27 1025 N/A 0 0
3:54 pm 15:54 undefined 53 11.7 2 -16.7 12 12 undefined N/A 30.25 1024 N/A 0 0
4:54 pm 16:54 undefined 53 11.7 3 -16.1 13 13 undefined N/A 30.24 1024 N/A 0 0
5:54 pm 17:54 undefined 52 11.1 4 -15.6 14 14 undefined N/A 30.23 1024 N/A 0 0
6:54 pm 18:54 undefined 48 8.9 8 -13.3 19 19 undefined N/A 30.24 1024 N/A 0 0
7:54 pm 19:54 undefined 46 7.8 9 -12.8 22 22 undefined N/A 30.25 1024 N/A 0 0
8:54 pm 20:54 undefined 44 6.7 11 -11.7 26 26 undefined N/A 30.25 1024 N/A 0 0
9:54 pm 21:54 undefined 42 5.6 12 -11.1 29 29 undefined N/A 30.25 1024 N/A 0 0
10:54 pm 22:54 undefined 41 5 16 -8.9 36 36 undefined N/A 30.25 1024 N/A 0 0
11:54 pm 23:54 undefined 39 3.9 18 -7.8 43 43 undefined N/A 30.24 1024 N/A 0 0

Powered by AerisWeather